Horseshoe Bay, TX

6:33 AM CST on December 08, 2016 (GMT -0600)
Horseshoe Bay

Weather History for KDZB - April, 2013

Change the Weather History Date:

Wednesday, April 3, 2013

  Actual Average (KBMQ) Record (KBMQ)
Temperature  
Mean Temperature 50 °F -  
Max Temperature 55 °F 72 °F 84 °F (2007)
Min Temperature 46 °F 51 °F 43 °F (2009)
Degree Days  
Heating Degree Days 14    
Moisture  
Dew Point 48 °F    
Average Humidity 98    
Maximum Humidity 100    
Minimum Humidity 87    
Precipitation  
Precipitation 0.06 in - - ()
Sea Level Pressure  
Sea Level Pressure 30.04 in    
Wind  
Wind Speed 8 mph (NNW)    
Max Wind Speed 13 mph    
Max Gust Speed 23 mph    
Visibility 9 miles    
Events Rain , Thunderstorm    
Averages and records for this station are not official NWS values.
T = Trace of Precipitation, MM = Missing Value Source: NWS Daily Summary

Daily Weather History Graph

Daily Weather History Graph

Search for Another Location

Airport or City:

Trip Planner

Search our weather history database for the weather conditions in past years. The results will help you decide how hot, cold, wet, or windy it might be!

Date:

Astronomy

Apr. 03, 2013 Rise Set
Actual Time 6:19 AM MDT 6:53 PM MDT
Civil Twilight 5:55 AM MDT 7:18 PM MDT
Nautical Twilight 5:27 AM MDT 7:46 PM MDT
Astronomical Twilight 4:58 AM MDT 8:15 PM MDT
Moon 1:35 AM MDT (4/3) 12:32 PM MDT (4/3)
Length of Visible Light 13h 22m
Length of Day
12h 34m
Last Quarter, 44% of the Moon is Illuminated
Apr 3
Last Quarter
Apr 10
New
Apr 18
First Quarter
Apr 25
Full
May 2
Last Quarter

Hourly Weather History & Observations

Time (MDT) Temp. Windchill Dew Point Humidity Pressure Visibility Wind Dir Wind Speed Gust Speed Precip Events Conditions
12:15 AM 51.8 °F - 51.8 °F 100% 29.93 in 10.0 mi ENE 5.8 mph - N/A Thunderstorm Thunderstorm
12:35 AM 51.8 °F - 51.8 °F 100% 29.95 in 10.0 mi NNE 9.2 mph 21.9 mph 0.01 in   Mostly Cloudy
12:55 AM 51.8 °F - 51.8 °F 100% 29.92 in 10.0 mi ENE 5.8 mph - 0.01 in   Overcast
1:15 AM 51.8 °F - 51.8 °F 100% 29.91 in 10.0 mi SE 5.8 mph - N/A   Mostly Cloudy
1:35 AM 53.6 °F - 53.6 °F 100% 29.88 in 10.0 mi ESE 3.5 mph - N/A   Clear
1:55 AM 53.6 °F - 53.6 °F 100% 29.87 in 10.0 mi ENE 3.5 mph - N/A   Clear
2:15 AM 53.6 °F - 53.6 °F 100% 29.88 in 10.0 mi Calm Calm - N/A   Scattered Clouds
2:35 AM 55.4 °F - 55.4 °F 100% 29.90 in 10.0 mi WNW 5.8 mph - N/A   Mostly Cloudy
2:55 AM 53.6 °F - 53.6 °F 100% 29.91 in 10.0 mi West 4.6 mph - N/A   Overcast
3:15 AM 53.6 °F - 53.6 °F 100% 29.91 in 10.0 mi NW 8.1 mph - N/A   Overcast
3:35 AM 53.6 °F - 53.6 °F 100% 29.93 in 10.0 mi NNW 8.1 mph - N/A   Overcast
3:55 AM 53.6 °F - 53.6 °F 100% 29.93 in 10.0 mi NNW 9.2 mph 16.1 mph N/A   Overcast
4:15 AM 55.4 °F - 55.4 °F 100% 29.93 in 10.0 mi North 10.4 mph - N/A   Overcast
4:35 AM 53.6 °F - 53.6 °F 100% 29.94 in 10.0 mi NNW 9.2 mph - N/A   Overcast
4:55 AM 51.8 °F - 51.8 °F 100% 29.96 in 10.0 mi NW 10.4 mph 19.6 mph N/A   Overcast
5:15 AM 50.0 °F - 50.0 °F 100% 29.98 in 10.0 mi NW 11.5 mph 18.4 mph N/A   Overcast
5:55 AM 48.2 °F - 48.2 °F 100% 29.99 in 10.0 mi WNW 9.2 mph 18.4 mph N/A   Overcast
6:15 AM 48.2 °F - 48.2 °F 100% 29.99 in 10.0 mi NW 9.2 mph - N/A   Overcast
6:35 AM 48.2 °F - 48.2 °F 100% 30.00 in 10.0 mi NW 6.9 mph - N/A   Overcast
6:55 AM 48.2 °F - 48.2 °F 100% 30.00 in 10.0 mi NNW 8.1 mph - N/A   Overcast
7:15 AM 48.2 °F - 48.2 °F 100% 30.00 in 10.0 mi NNW 9.2 mph - N/A Thunderstorm Overcast
7:35 AM 50.0 °F - 50.0 °F 100% 30.01 in 10.0 mi NNW 8.1 mph - N/A   Overcast
7:55 AM 50.0 °F - 50.0 °F 100% 30.04 in 7.0 mi NNW 9.2 mph - N/A   Overcast
8:15 AM 50.0 °F - 50.0 °F 100% 30.03 in 5.0 mi North 5.8 mph - N/A   Overcast
8:35 AM 50.0 °F - 50.0 °F 100% 30.07 in 2.0 mi NW 9.2 mph - N/A Thunderstorm Overcast
9:15 AM 48.2 °F - 48.2 °F 100% 30.06 in 1.5 mi NNW 3.5 mph - N/A Rain , Thunderstorm Thunderstorms and Rain
9:35 AM 48.2 °F - 48.2 °F 100% 30.03 in 2.5 mi NE 4.6 mph - 0.01 in Rain , Thunderstorm Light Thunderstorms and Rain
9:55 AM 50.0 °F - 50.0 °F 100% 30.05 in 4.0 mi North 6.9 mph - 0.01 in Rain , Thunderstorm Light Thunderstorms and Rain
10:15 AM 48.2 °F - 48.2 °F 100% 30.04 in 5.0 mi NNW 10.4 mph - N/A Thunderstorm Overcast
10:35 AM 48.2 °F - 48.2 °F 100% 30.04 in 4.0 mi NNW 10.4 mph - N/A   Overcast
10:55 AM 48.2 °F - 48.2 °F 100% 30.05 in 4.0 mi NNW 8.1 mph - N/A   Overcast
11:15 AM 48.2 °F - 48.2 °F 100% 30.06 in 5.0 mi NNW 9.2 mph - N/A Thunderstorm Overcast
11:35 AM 48.2 °F - 48.2 °F 100% 30.09 in 3.0 mi NW 10.4 mph 17.3 mph N/A Thunderstorm Overcast
11:55 AM 48.2 °F - 48.2 °F 100% 30.07 in 7.0 mi NNW 12.7 mph 16.1 mph N/A Rain Light Rain
12:15 PM 48.2 °F - 48.2 °F 100% 30.04 in 10.0 mi NNW 12.7 mph 17.3 mph N/A Rain Light Rain
12:35 PM 48.2 °F - 48.2 °F 100% 30.04 in 10.0 mi NW 10.4 mph 17.3 mph 0.01 in Rain , Thunderstorm Light Thunderstorms and Rain
12:55 PM 48.2 °F - 48.2 °F 100% 30.06 in 10.0 mi WNW 9.2 mph 18.4 mph 0.01 in   Overcast
1:15 PM 48.2 °F - 48.2 °F 100% 30.06 in 10.0 mi WNW 10.4 mph 16.1 mph 0.01 in Rain Rain
1:55 PM 48.2 °F - 48.2 °F 100% 30.06 in 10.0 mi NW 11.5 mph 17.3 mph 0.01 in   Drizzle
2:15 PM 46.4 °F 40.7 °F 46.4 °F 100% 30.05 in 10.0 mi NW 12.7 mph 23.0 mph 0.01 in Rain Rain
2:35 PM 46.4 °F 41.9 °F 46.4 °F 100% 30.04 in 10.0 mi NW 9.2 mph 16.1 mph 0.01 in Rain Rain
2:55 PM 48.2 °F - 48.2 °F 100% 30.04 in 10.0 mi NW 11.5 mph 16.1 mph 0.01 in Rain , Thunderstorm Light Thunderstorms and Rain
3:15 PM 48.2 °F - 48.2 °F 100% 30.04 in 10.0 mi NW 10.4 mph 16.1 mph 0.01 in Thunderstorm Thunderstorm
3:35 PM 48.2 °F - 48.2 °F 100% 30.04 in 10.0 mi NW 11.5 mph 20.7 mph 0.01 in   Light Drizzle
3:55 PM 48.2 °F - 46.4 °F 93% 30.05 in 10.0 mi NNW 10.4 mph 16.1 mph 0.01 in   Overcast
4:15 PM 48.2 °F - 46.4 °F 93% 30.05 in 10.0 mi NNW 10.4 mph - N/A   Overcast
4:35 PM 48.2 °F - 46.4 °F 93% 30.06 in 10.0 mi NNW 10.4 mph 18.4 mph N/A   Overcast
4:55 PM 48.2 °F - 44.6 °F 87% 30.07 in 10.0 mi North 8.1 mph - N/A   Overcast
5:15 PM 48.2 °F - 44.6 °F 87% 30.07 in 10.0 mi NNW 11.5 mph 16.1 mph N/A   Overcast
5:35 PM 48.2 °F - 44.6 °F 87% 30.08 in 10.0 mi North 8.1 mph 16.1 mph N/A   Overcast
5:55 PM 48.2 °F - 44.6 °F 87% 30.08 in 5.0 mi NNW 10.4 mph 16.1 mph N/A   Overcast
6:15 PM 46.4 °F 42.4 °F 46.4 °F 100% 30.08 in 10.0 mi NNW 8.1 mph - N/A   Overcast
6:35 PM 46.4 °F 42.9 °F 46.4 °F 100% 30.08 in 10.0 mi NNW 6.9 mph - N/A   Overcast
6:55 PM 46.4 °F 41.9 °F 46.4 °F 100% 30.09 in 10.0 mi NNW 9.2 mph - N/A   Overcast
7:15 PM 46.4 °F 41.5 °F 46.4 °F 100% 30.10 in 7.0 mi NNW 10.4 mph - N/A   Overcast
7:35 PM 46.4 °F 41.5 °F 46.4 °F 100% 30.10 in 7.0 mi NNW 10.4 mph 16.1 mph N/A   Overcast
7:55 PM 46.4 °F 41.1 °F 46.4 °F 100% 30.11 in 7.0 mi NNW 11.5 mph 16.1 mph N/A   Overcast
8:15 PM 46.4 °F 42.4 °F 46.4 °F 100% 30.12 in 10.0 mi NNW 8.1 mph - N/A   Overcast
8:35 PM 46.4 °F 42.4 °F 46.4 °F 100% 30.13 in 5.0 mi NNW 8.1 mph - N/A   Overcast
9:15 PM 46.4 °F 41.5 °F 44.6 °F 93% 30.14 in 10.0 mi NNW 10.4 mph - N/A   Overcast
9:35 PM 46.4 °F 42.9 °F 44.6 °F 93% 30.15 in 10.0 mi NW 6.9 mph - N/A   Overcast
9:55 PM 46.4 °F 43.5 °F 44.6 °F 93% 30.15 in 10.0 mi NW 5.8 mph - N/A   Overcast
10:15 PM 46.4 °F 42.4 °F 44.6 °F 93% 30.16 in 10.0 mi NW 8.1 mph - N/A   Overcast
10:35 PM 46.4 °F 43.5 °F 46.4 °F 100% 30.15 in 7.0 mi NW 5.8 mph - N/A   Overcast
10:55 PM 46.4 °F 42.4 °F 44.6 °F 93% 30.15 in 10.0 mi NNW 8.1 mph - N/A   Overcast
11:15 PM 46.4 °F 42.4 °F 42.8 °F 87% 30.15 in 10.0 mi NW 8.1 mph - N/A   Overcast
11:35 PM 46.4 °F 42.9 °F 42.8 °F 87% 30.15 in 10.0 mi NW 6.9 mph - N/A   Overcast
11:55 PM 46.4 °F 41.9 °F 42.8 °F 87% 30.15 in 10.0 mi NNW 9.2 mph - N/A   Overcast